04-03-2022, 00:00:08,    156,    0.0,    6.6,   0.00,   0.00, 1012.6,   90.5, -999.0
04-03-2022, 00:00:18,    156,    0.0,    6.5,   0.00,   0.00, 1012.6,   90.4, -999.0
04-03-2022, 00:00:28,    156,    0.0,    6.5,   0.00,   0.00, 1012.6,   90.5, -999.0
04-03-2022, 00:00:38,    156,    0.0,    6.5,   0.00,   0.00, 1012.6,   90.5, -999.0
04-03-2022, 00:00:48,    156,    0.0,    6.6,   0.00,   0.00, 1012.6,   90.6, -999.0
04-03-2022, 00:00:57,    156,    0.0,    6.5,   0.00,   0.00, 1012.6,   90.6, -999.0
04-03-2022, 00:01:08,    156,    0.0,    6.5,   0.00,   0.00, 1012.7,   90.4, -999.0
04-03-2022, 00:01:17,    156,    0.0,    6.5,   0.00,   0.00, 1012.6,   90.5, -999.0
04-03-2022, 00:01:27,    156,    0.0,    6.5,   0.00,   0.00, 1012.6,   90.6, -999.0
04-03-2022, 00:01:37,    156,    0.0,    6.6,   0.00,   0.00, 1012.6,   90.5, -999.0
04-03-2022, 00:01:47,    156,    0.0,    6.6,   0.00,   0.00, 1012.6,   90.5, -999.0
04-03-2022, 00:01:57,    156,    0.0,    6.5,   0.00,   0.00, 1012.6,   90.5, -999.0
04-03-2022, 00:02:07,    156,    0.0,    6.6,   0.00,   0.00, 1012.6,   90.6, -999.0
04-03-2022, 00:02:17,    156,    0.0,    6.5,   0.00,   0.00, 1012.6,   90.7, -999.0
04-03-2022, 00:02:27,    156,    0.0,    6.5,   0.00,   0.00, 1012.6,   90.6, -999.0
04-03-2022, 00:02:37,    156,    0.0,    6.5,   0.00,   0.00, 1012.6,   90.4, -999.0
04-03-2022, 00:02:47,    156,    0.0,    6.5,   0.00,   0.00, 1012.6,   90.6, -999.0
04-03-2022, 00:02:57,    156,    0.0,    6.5,   0.00,   0.00, 1012.6,   90.5, -999.0
04-03-2022, 00:03:07,    156,    0.0,    6.5,   0.00,   0.00, 1012.6,   90.6, -999.0
04-03-2022, 00:03:17,    169,    0.0,    6.6,   0.00,   0.00, 1012.7,   90.7, -999.0
04-03-2022, 00:03:27,    170,    0.0,    6.5,   0.00,   0.00, 1012.7,   90.6, -999.0
04-03-2022, 00:03:37,    169,    0.0,    6.5,   0.00,   0.00, 1012.6,   90.6, -999.0
04-03-2022, 00:03:47,    170,    0.0,    6.5,   0.00,   0.00, 1012.6,   90.5, -999.0
04-03-2022, 00:03:57,    169,    0.0,    6.5,   0.00,   0.00, 1012.6,   90.6, -999.0
04-03-2022, 00:04:07,    170,    0.0,    6.5,   0.00,   0.00, 1012.7,   90.5, -999.0
04-03-2022, 00:04:17,    169,    0.0,    6.5,   0.00,   0.00, 1012.7,   90.4, -999.0
04-03-2022, 00:04:27,    169,    0.0,    6.5,   0.00,   0.00, 1012.6,   90.6, -999.0
04-03-2022, 00:04:36,    169,    0.0,    6.5,   0.00,   0.00, 1012.7,   90.6, -999.0
04-03-2022, 00:04:47,    169,    0.0,    6.5,   0.00,   0.00, 1012.7,   90.8, -999.0
04-03-2022, 00:04:56,    170,    0.3,    6.5,   0.00,   0.00, 1012.7,   90.8, -999.0
04-03-2022, 00:05:06,    174,    0.0,    6.5,   0.00,   0.00, 1012.7,   90.8, -999.0
04-03-2022, 00:05:16,    174,    0.0,    6.5,   0.00,   0.00, 1012.7,   90.5, -999.0
04-03-2022, 00:05:26,    174,    0.0,    6.4,   0.00,   0.00, 1012.7,   90.6, -999.0
04-03-2022, 00:05:36,    174,    0.0,    6.5,   0.00,   0.00, 1012.6,   90.6, -999.0
04-03-2022, 00:05:46,    174,    0.0,    6.5,   0.00,   0.00, 1012.6,   90.6, -999.0
04-03-2022, 00:05:56,    174,    0.0,    6.5,   0.00,   0.00, 1012.6,   90.7, -999.0
04-03-2022, 00:06:06,    174,    0.0,    6.5,   0.00,   0.00, 1012.6,   90.7, -999.0
04-03-2022, 00:06:16,    174,    0.0,    6.5,   0.00,   0.00, 1012.6,   90.7, -999.0
04-03-2022, 00:06:26,    174,    0.0,    6.5,   0.00,   0.00, 1012.7,   90.7, -999.0
04-03-2022, 00:06:36,    174,    0.0,    6.5,   0.00,   0.00, 1012.6,   90.8, -999.0
04-03-2022, 00:06:46,    174,    0.0,    6.5,   0.00,   0.00, 1012.7,   90.7, -999.0
04-03-2022, 00:06:56,    174,    0.0,    6.4,   0.00,   0.00, 1012.6,   90.8, -999.0
04-03-2022, 00:07:06,    174,    0.0,    6.4,   0.00,   0.00, 1012.7,   90.8, -999.0
04-03-2022, 00:07:26,    174,    0.0,    6.5,   0.00,   0.00, 1012.6,   90.8, -999.0
04-03-2022, 00:07:36,    174,    0.0,    6.5,   0.00,   0.00, 1012.7,   90.7, -999.0
04-03-2022, 00:07:45,    174,    0.0,    6.5,   0.00,   0.00, 1012.6,   90.7, -999.0
04-03-2022, 00:07:56,    174,    0.0,    6.5,   0.00,   0.00, 1012.7,   90.7, -999.0
04-03-2022, 00:08:06,    158,    0.7,    6.5,   0.00,   0.00, 1012.8,   91.1, -999.0
04-03-2022, 00:08:15,    160,    0.0,    6.5,   0.00,   0.00, 1012.7,   90.7, -999.0
04-03-2022, 00:08:26,    160,    0.0,    6.5,   0.00,   0.00, 1012.6,   90.7, -999.0
04-03-2022, 00:08:35,    160,    0.0,    6.4,   0.00,   0.00, 1012.7,   90.7, -999.0
04-03-2022, 00:08:45,    160,    0.0,    6.4,   0.00,   0.00, 1012.7,   90.9, -999.0
04-03-2022, 00:08:55,    160,    0.0,    6.5,   0.00,   0.00, 1012.6,   91.0, -999.0
04-03-2022, 00:09:05,    160,    0.0,    6.5,   0.00,   0.00, 1012.6,   90.9, -999.0
04-03-2022, 00:09:15,    160,    0.0,    6.5,   0.00,   0.00, 1012.7,   91.1, -999.0
04-03-2022, 00:09:25,    160,    0.0,    6.5,   0.00,   0.00, 1012.6,   91.0, -999.0
04-03-2022, 00:09:35,    161,    0.0,    6.5,   0.00,   0.00, 1012.6,   91.0, -999.0
04-03-2022, 00:09:45,    160,    0.0,    6.5,   0.00,   0.00, 1012.7,   91.0, -999.0
04-03-2022, 00:09:55,    160,    0.0,    6.5,   0.00,   0.00, 1012.6,   91.0, -999.0
04-03-2022, 00:10:05,    160,    0.0,    6.5,   0.00,   0.00, 1012.6,   90.9, -999.0
04-03-2022, 00:10:15,    160,    0.0,    6.5,   0.00,   0.00, 1012.6,   91.0, -999.0
04-03-2022, 00:10:25,    160,    0.0,    6.5,   0.00,   0.00, 1012.7,   91.1, -999.0
04-03-2022, 00:10:35,    160,    0.0,    6.6,   0.00,   0.00, 1012.6,   90.9, -999.0
04-03-2022, 00:10:45,    160,    0.0,    6.5,   0.00,   0.00, 1012.6,   91.0, -999.0
04-03-2022, 00:10:55,    160,    0.0,    6.5,   0.00,   0.00, 1012.6,   90.9, -999.0
04-03-2022, 00:11:05,    160,    0.0,    6.5,   0.00,   0.00, 1012.6,   91.0, -999.0
04-03-2022, 00:11:14,    160,    0.0,    6.5,   0.00,   0.00, 1012.6,   91.0, -999.0
04-03-2022, 00:11:24,    160,    0.2,    6.5,   0.00,   0.00, 1012.7,   91.2, -999.0
04-03-2022, 00:11:35,    159,    0.1,    6.6,   0.00,   0.00, 1012.7,   91.2, -999.0
04-03-2022, 00:11:44,    159,    0.0,    6.5,   0.00,   0.00, 1012.7,   91.1, -999.0
04-03-2022, 00:11:54,    159,    0.1,    6.6,   0.00,   0.00, 1012.7,   91.3, -999.0
04-03-2022, 00:12:04,    159,    0.0,    6.5,   0.00,   0.00, 1012.6,   91.1, -999.0
04-03-2022, 00:12:14,    159,    0.0,    6.5,   0.00,   0.00, 1012.6,   91.0, -999.0
04-03-2022, 00:12:24,    160,    0.0,    6.5,   0.00,   0.00, 1012.6,   91.1, -999.0
04-03-2022, 00:12:34,    160,    0.0,    6.5,   0.00,   0.00, 1012.6,   91.1, -999.0
04-03-2022, 00:12:44,    159,    0.0,    6.5,   0.00,   0.00, 1012.6,   91.0, -999.0
04-03-2022, 00:12:54,    159,    0.0,    6.5,   0.00,   0.00, 1012.7,   91.2, -999.0
04-03-2022, 00:13:04,    160,    0.0,    6.5,   0.00,   0.00, 1012.6,   91.1, -999.0
04-03-2022, 00:13:14,    160,    0.0,    6.4,   0.00,   0.00, 1012.6,   91.1, -999.0
04-03-2022, 00:13:24,    160,    0.0,    6.5,   0.00,   0.00, 1012.6,   91.2, -999.0
04-03-2022, 00:13:34,    160,    0.0,    6.4,   0.00,   0.00, 1012.6,   91.2, -999.0
04-03-2022, 00:13:44,    160,    0.0,    6.5,   0.00,   0.00, 1012.6,   91.1, -999.0
04-03-2022, 00:13:54,    161,    0.0,    6.5,   0.00,   0.00, 1012.6,   91.2, -999.0
04-03-2022, 00:14:04,    159,    0.0,    6.5,   0.00,   0.00, 1012.6,   91.2, -999.0
04-03-2022, 00:14:14,    160,    0.0,    6.5,   0.00,   0.00, 1012.6,   91.3, -999.0
04-03-2022, 00:14:24,    160,    0.0,    6.6,   0.00,   0.00, 1012.6,   91.3, -999.0
04-03-2022, 00:14:33,    160,    0.0,    6.6,   0.00,   0.00, 1012.6,   91.3, -999.0
04-03-2022, 00:14:44,    160,    0.0,    6.6,   0.00,   0.00, 1012.6,   91.3, -999.0
04-03-2022, 00:14:53,    160,    0.0,    6.6,   0.00,   0.00, 1012.6,   91.3, -999.0
04-03-2022, 00:15:03,    159,    0.0,    6.5,   0.00,   0.00, 1012.7,   91.2, -999.0
04-03-2022, 00:15:14,    160,    0.0,    6.5,   0.00,   0.00, 1012.6,   91.3, -999.0
04-03-2022, 00:15:23,    160,    0.0,    6.5,   0.00,   0.00, 1012.6,   91.4, -999.0
04-03-2022, 00:15:33,    160,    0.0,    6.5,   0.00,   0.00, 1012.6,   91.2, -999.0
04-03-2022, 00:15:43,    160,    0.0,    6.5,   0.00,   0.00, 1012.6,   91.3, -999.0
04-03-2022, 00:15:53,    160,    0.0,    6.6,   0.00,   0.00, 1012.6,   91.2, -999.0
04-03-2022, 00:16:03,    160,    0.0,    6.5,   0.00,   0.00, 1012.6,   91.3, -999.0
04-03-2022, 00:16:13,    160,    0.0,    6.6,   0.00,   0.00, 1012.6,   91.4, -999.0
04-03-2022, 00:16:23,    160,    0.0,    6.5,   0.00,   0.00, 1012.6,   91.2, -999.0
04-03-2022, 00:16:33,    160,    0.0,    6.6,   0.00,   0.00, 1012.6,   91.3, -999.0
04-03-2022, 00:16:43,    160,    0.0,    6.6,   0.00,   0.00, 1012.6,   91.4, -999.0
04-03-2022, 00:16:53,    160,    0.0,    6.6,   0.00,   0.00, 1012.7,   91.5, -999.0
04-03-2022, 00:17:03,    160,    0.0,    6.6,   0.00,   0.00, 1012.6,   91.3, -999.0
04-03-2022, 00:17:13,    160,    0.0,    6.5,   0.00,   0.00, 1012.6,   91.3, -999.0
04-03-2022, 00:17:23,    160,    0.0,    6.6,   0.00,   0.00, 1012.6,   91.3, -999.0
04-03-2022, 00:17:33,    160,    0.0,    6.6,   0.00,   0.00, 1012.6,   91.4, -999.0
04-03-2022, 00:17:43,    159,    0.0,    6.5,   0.00,   0.00, 1012.6,   91.3, -999.0
04-03-2022, 00:17:53,    161,    0.0,    6.5,   0.00,   0.00, 1012.6,   91.2, -999.0
04-03-2022, 00:18:02,    160,    0.0,    6.5,   0.00,   0.00, 1012.6,   91.3, -999.0
04-03-2022, 00:18:12,    160,    0.0,    6.6,   0.00,   0.00, 1012.6,   91.3, -999.0
04-03-2022, 00:18:23,    159,    0.0,    6.6,   0.00,   0.00, 1012.6,   91.4, -999.0
04-03-2022, 00:18:32,    160,    0.0,    6.6,   0.00,   0.00, 1012.6,   91.3, -999.0
04-03-2022, 00:18:42,    160,    0.0,    6.5,   0.00,   0.00, 1012.6,   91.4, -999.0
04-03-2022, 00:18:52,    160,    0.0,    6.5,   0.00,   0.00, 1012.6,   91.4, -999.0
04-03-2022, 00:19:02,    160,    0.0,    6.6,   0.00,   0.00, 1012.7,   91.4, -999.0
04-03-2022, 00:19:12,    160,    0.0,    6.5,   0.00,   0.00, 1012.6,   91.4, -999.0
04-03-2022, 00:19:22,    160,    0.0,    6.5,   0.00,   0.00, 1012.6,   91.3, -999.0
04-03-2022, 00:19:32,    160,    0.0,    6.5,   0.00,   0.00, 1012.6,   91.3, -999.0
04-03-2022, 00:19:42,    160,    0.0,    6.5,   0.00,   0.00, 1012.6,   91.4, -999.0
04-03-2022, 00:19:52,    160,    0.0,    6.5,   0.00,   0.00, 1012.6,   91.3, -999.0
04-03-2022, 00:20:02,    160,    0.0,    6.6,   0.00,   0.00, 1012.6,   91.4, -999.0
04-03-2022, 00:20:12,    160,    0.0,    6.6,   0.00,   0.00, 1012.6,   91.6, -999.0
04-03-2022, 00:20:22,    160,    0.0,    6.6,   0.00,   0.00, 1012.6,   91.7, -999.0
04-03-2022, 00:20:32,    160,    0.0,    6.6,   0.00,   0.00, 1012.6,   91.6, -999.0
04-03-2022, 00:20:42,    160,    0.0,    6.6,   0.00,   0.00, 1012.6,   91.7, -999.0
04-03-2022, 00:20:52,    160,    0.0,    6.6,   0.00,   0.00, 1012.6,   91.6, -999.0
04-03-2022, 00:21:02,    160,    0.0,    6.4,   0.00,   0.00, 1012.7,   91.5, -999.0
04-03-2022, 00:21:12,    160,    0.0,    6.6,   0.00,   0.00, 1012.7,   91.4, -999.0
04-03-2022, 00:21:21,    159,    0.0,    6.5,   0.00,   0.00, 1012.6,   91.3, -999.0
04-03-2022, 00:21:32,    160,    0.0,    6.5,   0.00,   0.00, 1012.6,   91.3, -999.0
04-03-2022, 00:21:41,    162,    0.5,    6.6,   0.00,   0.00, 1012.7,   91.6, -999.0
04-03-2022, 00:21:51,    185,    1.2,    6.6,   0.00,   0.00, 1012.8,   91.7, -999.0
04-03-2022, 00:22:01,    183,    0.1,    6.5,   0.00,   0.00, 1012.7,   91.3, -999.0
04-03-2022, 00:22:11,    183,    0.1,    6.5,   0.00,   0.00, 1012.8,   91.4, -999.0
04-03-2022, 00:22:21,    183,    0.0,    6.5,   0.00,   0.00, 1012.7,   91.4, -999.0
04-03-2022, 00:22:31,    183,    0.0,    6.5,   0.00,   0.00, 1012.6,   91.2, -999.0
04-03-2022, 00:22:41,    183,    0.0,    6.5,   0.00,   0.00, 1012.6,   91.3, -999.0
04-03-2022, 00:22:51,    183,    0.0,    6.5,   0.00,   0.00, 1012.6,   91.4, -999.0
04-03-2022, 00:23:01,    183,    0.1,    6.5,   0.00,   0.00, 1012.7,   91.5, -999.0
04-03-2022, 00:23:11,    182,    0.0,    6.5,   0.00,   0.00, 1012.6,   91.5, -999.0
04-03-2022, 00:23:21,    182,    0.0,    6.5,   0.00,   0.00, 1012.6,   91.6, -999.0
04-03-2022, 00:23:31,    182,    0.0,    6.6,   0.00,   0.00, 1012.6,   91.7, -999.0
04-03-2022, 00:23:41,    183,    0.0,    6.5,   0.00,   0.00, 1012.6,   91.6, -999.0
04-03-2022, 00:23:51,    182,    0.2,    6.6,   0.00,   0.00, 1012.7,   91.7, -999.0
04-03-2022, 00:24:01,    182,    0.0,    6.6,   0.00,   0.00, 1012.6,   91.5, -999.0
04-03-2022, 00:24:11,    182,    0.3,    6.6,   0.00,   0.00, 1012.7,   91.8, -999.0
04-03-2022, 00:24:21,    182,    0.4,    6.6,   0.00,   0.00, 1012.8,   91.8, -999.0
04-03-2022, 00:24:31,    181,    0.1,    6.5,   0.00,   0.00, 1012.7,   91.6, -999.0
04-03-2022, 00:24:41,    182,    0.0,    6.5,   0.00,   0.00, 1012.7,   91.6, -999.0
04-03-2022, 00:24:50,    182,    0.0,    6.5,   0.00,   0.00, 1012.7,   91.3, -999.0
04-03-2022, 00:25:00,    182,    0.2,    6.6,   0.00,   0.00, 1012.7,   91.7, -999.0
04-03-2022, 00:25:12,    182,    0.0,    6.6,   0.00,   0.00, 1012.6,   91.6, -999.0
04-03-2022, 00:25:20,    182,    0.0,    6.5,   0.00,   0.00, 1012.6,   91.5, -999.0
04-03-2022, 00:25:30,    181,    0.0,    6.6,   0.00,   0.00, 1012.6,   91.6, -999.0
04-03-2022, 00:25:40,    181,    0.0,    6.5,   0.00,   0.00, 1012.6,   91.8, -999.0
04-03-2022, 00:25:50,    181,    0.0,    6.5,   0.00,   0.00, 1012.6,   91.6, -999.0
04-03-2022, 00:26:00,    182,    0.0,    6.5,   0.00,   0.00, 1012.6,   91.6, -999.0
04-03-2022, 00:26:10,    181,    0.3,    6.6,   0.00,   0.00, 1012.7,   91.6, -999.0
04-03-2022, 00:26:20,    181,    0.6,    6.7,   0.00,   0.00, 1012.8,   91.8, -999.0
04-03-2022, 00:26:30,    180,    0.0,    6.5,   0.00,   0.00, 1012.7,   91.4, -999.0
04-03-2022, 00:26:40,    181,    0.1,    6.5,   0.00,   0.00, 1012.7,   91.4, -999.0
04-03-2022, 00:26:50,    152,    0.2,    6.6,   0.00,   0.00, 1012.7,   91.5, -999.0
04-03-2022, 00:27:00,    154,    0.0,    6.5,   0.00,   0.00, 1012.7,   91.4, -999.0
04-03-2022, 00:27:10,    154,    0.0,    6.5,   0.00,   0.00, 1012.6,   91.5, -999.0
04-03-2022, 00:27:20,    153,    0.0,    6.5,   0.00,   0.00, 1012.6,   91.4, -999.0
04-03-2022, 00:27:30,    154,    0.0,    6.4,   0.00,   0.00, 1012.6,   91.3, -999.0
04-03-2022, 00:27:40,    153,    0.0,    6.5,   0.00,   0.00, 1012.6,   91.5, -999.0
04-03-2022, 00:27:50,    153,    0.0,    6.5,   0.00,   0.00, 1012.6,   91.5, -999.0
04-03-2022, 00:27:59,    153,    0.0,    6.5,   0.00,   0.00, 1012.7,   91.5, -999.0
04-03-2022, 00:28:09,    153,    0.0,    6.5,   0.00,   0.00, 1012.6,   91.4, -999.0
04-03-2022, 00:28:20,    153,    0.0,    6.5,   0.00,   0.00, 1012.6,   91.5, -999.0
04-03-2022, 00:28:29,    153,    0.0,    6.5,   0.00,   0.00, 1012.7,   91.4, -999.0
04-03-2022, 00:28:39,    153,    0.0,    6.5,   0.00,   0.00, 1012.6,   91.6, -999.0
04-03-2022, 00:28:50,    153,    0.0,    6.5,   0.00,   0.00, 1012.6,   91.5, -999.0
04-03-2022, 00:28:59,    153,    0.0,    6.5,   0.00,   0.00, 1012.6,   91.6, -999.0
04-03-2022, 00:29:10,    153,    0.0,    6.5,   0.00,   0.00, 1012.6,   91.4, -999.0
04-03-2022, 00:29:19,    153,    0.0,    6.4,   0.00,   0.00, 1012.6,   91.4, -999.0
04-03-2022, 00:29:29,    153,    0.0,    6.4,   0.00,   0.00, 1012.6,   91.4, -999.0
04-03-2022, 00:29:39,    153,    0.0,    6.5,   0.00,   0.00, 1012.6,   91.4, -999.0
04-03-2022, 00:29:49,    153,    0.0,    6.5,   0.00,   0.00, 1012.6,   91.6, -999.0
04-03-2022, 00:29:59,    153,    0.0,    6.5,   0.00,   0.00, 1012.6,   91.5, -999.0
04-03-2022, 00:30:09,    153,    0.0,    6.5,   0.00,   0.00, 1012.6,   91.8, -999.0
04-03-2022, 00:30:19,    154,    0.0,    6.5,   0.00,   0.00, 1012.6,   91.9, -999.0
04-03-2022, 00:30:29,    174,    0.9,    6.6,   0.00,   0.00, 1012.7,   91.9, -999.0
04-03-2022, 00:30:39,    142,    1.7,    6.6,   0.00,   0.00, 1012.7,   91.9, -999.0
04-03-2022, 00:30:49,    135,    0.6,    6.6,   0.00,   0.00, 1012.8,   91.8, -999.0
04-03-2022, 00:30:59,    133,    2.0,    6.6,   0.00,   0.00, 1012.8,   91.8, -999.0
04-03-2022, 00:31:08,    130,    1.9,    6.5,   0.00,   0.00, 1012.8,   91.7, -999.0
04-03-2022, 00:31:19,    166,    1.4,    6.5,   0.00,   0.00, 1012.7,   91.7, -999.0
04-03-2022, 00:31:29,    166,    0.1,    6.5,   0.00,   0.00, 1012.6,   91.5, -999.0
04-03-2022, 00:31:38,    165,    0.0,    6.4,   0.00,   0.00, 1012.6,   91.4, -999.0
04-03-2022, 00:31:48,    166,    0.0,    6.4,   0.00,   0.00, 1012.6,   91.5, -999.0
04-03-2022, 00:31:59,    166,    0.2,    6.5,   0.00,   0.00, 1012.7,   91.8, -999.0
04-03-2022, 00:32:08,    165,    0.0,    6.4,   0.00,   0.00, 1012.6,   91.4, -999.0
04-03-2022, 00:32:18,    168,    0.1,    6.4,   0.00,   0.00, 1012.6,   91.5, -999.0
04-03-2022, 00:32:28,    169,    0.0,    6.3,   0.00,   0.00, 1012.6,   91.3, -999.0
04-03-2022, 00:32:38,    171,    0.0,    6.4,   0.00,   0.00, 1012.6,   91.3, -999.0
04-03-2022, 00:32:48,    171,    0.0,    6.4,   0.00,   0.00, 1012.6,   91.4, -999.0
04-03-2022, 00:32:58,    171,    0.0,    6.4,   0.00,   0.00, 1012.6,   91.6, -999.0
04-03-2022, 00:33:08,    194,    0.0,    6.4,   0.00,   0.00, 1012.6,   91.7, -999.0
04-03-2022, 00:33:22,    194,    0.0,    6.4,   0.00,   0.00, 1012.6,   91.9, -999.0
04-03-2022, 00:33:28,    194,    0.0,    6.4,   0.00,   0.00, 1012.6,   91.6, -999.0
04-03-2022, 00:33:38,    194,    0.0,    6.4,   0.00,   0.00, 1012.6,   91.5, -999.0
04-03-2022, 00:33:48,    195,    0.3,    6.4,   0.00,   0.00, 1012.7,   92.0, -999.0
04-03-2022, 00:33:58,    195,    0.0,    6.4,   0.00,   0.00, 1012.6,   91.7, -999.0
04-03-2022, 00:34:08,    194,    0.0,    6.3,   0.00,   0.00, 1012.6,   91.5, -999.0
04-03-2022, 00:34:17,    195,    0.0,    6.4,   0.00,   0.00, 1012.6,   91.6, -999.0
04-03-2022, 00:34:28,    194,    0.0,    6.3,   0.00,   0.00, 1012.6,   91.6, -999.0
04-03-2022, 00:34:38,    195,    0.0,    6.4,   0.00,   0.00, 1012.6,   91.7, -999.0
04-03-2022, 00:34:47,    150,    0.2,    6.5,   0.00,   0.00, 1012.7,   92.0, -999.0
04-03-2022, 00:34:58,    155,    0.8,    6.5,   0.00,   0.00, 1012.7,   92.1, -999.0
04-03-2022, 00:35:08,    181,    0.6,    6.5,   0.00,   0.00, 1012.7,   92.0, -999.0
04-03-2022, 00:35:17,    181,    0.0,    6.4,   0.00,   0.00, 1012.6,   91.6, -999.0
04-03-2022, 00:35:27,    181,    0.0,    6.4,   0.00,   0.00, 1012.6,   91.6, -999.0
04-03-2022, 00:35:38,    181,    0.0,    6.3,   0.00,   0.00, 1012.6,   91.7, -999.0
04-03-2022, 00:35:47,    181,    0.0,    6.4,   0.00,   0.00, 1012.6,   91.8, -999.0
04-03-2022, 00:35:57,    181,    0.0,    6.4,   0.00,   0.00, 1012.6,   91.7, -999.0
04-03-2022, 00:36:07,    181,    0.0,    6.4,   0.00,   0.00, 1012.6,   91.7, -999.0
04-03-2022, 00:36:17,    181,    0.0,    6.4,   0.00,   0.00, 1012.6,   91.7, -999.0
04-03-2022, 00:36:27,    181,    0.0,    6.4,   0.00,   0.00, 1012.6,   91.7, -999.0
04-03-2022, 00:36:37,    181,    0.0,    6.4,   0.00,   0.00, 1012.6,   91.8, -999.0
04-03-2022, 00:36:47,    181,    0.0,    6.4,   0.00,   0.00, 1012.6,   91.9, -999.0
04-03-2022, 00:36:57,    180,    0.0,    6.3,   0.00,   0.00, 1012.6,   91.8, -999.0
04-03-2022, 00:37:07,    180,    0.0,    6.4,   0.00,   0.00, 1012.6,   91.8, -999.0
04-03-2022, 00:37:17,    180,    0.0,    6.4,   0.00,   0.00, 1012.6,   91.8, -999.0
04-03-2022, 00:37:27,    180,    0.0,    6.4,   0.00,   0.00, 1012.6,   91.8, -999.0
04-03-2022, 00:37:37,    180,    0.0,    6.4,   0.00,   0.00, 1012.6,   91.9, -999.0
04-03-2022, 00:37:47,    180,    0.0,    6.4,   0.00,   0.00, 1012.6,   92.0, -999.0
04-03-2022, 00:37:56,    180,    0.0,    6.5,   0.00,   0.00, 1012.6,   91.9, -999.0
04-03-2022, 00:38:07,    180,    0.0,    6.4,   0.00,   0.00, 1012.6,   91.9, -999.0
04-03-2022, 00:38:17,    180,    0.0,    6.4,   0.00,   0.00, 1012.6,   92.0, -999.0
04-03-2022, 00:38:26,    180,    0.0,    6.5,   0.00,   0.00, 1012.6,   92.0, -999.0
04-03-2022, 00:38:36,    180,    0.0,    6.4,   0.00,   0.00, 1012.6,   91.9, -999.0
04-03-2022, 00:38:47,    179,    0.0,    6.4,   0.00,   0.00, 1012.6,   91.8, -999.0
04-03-2022, 00:38:56,    180,    0.0,    6.5,   0.00,   0.00, 1012.6,   92.0, -999.0
04-03-2022, 00:39:06,    180,    0.0,    6.5,   0.00,   0.00, 1012.6,   92.1, -999.0
04-03-2022, 00:39:16,    181,    0.0,    6.5,   0.00,   0.00, 1012.6,   92.1, -999.0
04-03-2022, 00:39:26,    180,    0.0,    6.4,   0.00,   0.00, 1012.6,   92.1, -999.0
04-03-2022, 00:39:36,    180,    0.1,    6.5,   0.00,   0.00, 1012.6,   92.2, -999.0
04-03-2022, 00:39:46,    180,    0.0,    6.4,   0.00,   0.00, 1012.6,   92.0, -999.0
04-03-2022, 00:39:56,    180,    0.0,    6.4,   0.00,   0.00, 1012.6,   91.9, -999.0
04-03-2022, 00:40:06,    180,    0.0,    6.4,   0.00,   0.00, 1012.6,   91.9, -999.0
04-03-2022, 00:40:16,    180,    0.0,    6.4,   0.00,   0.00, 1012.6,   91.9, -999.0
04-03-2022, 00:40:26,    180,    0.0,    6.4,   0.00,   0.00, 1012.6,   91.9, -999.0
04-03-2022, 00:40:36,    180,    0.0,    6.4,   0.00,   0.00, 1012.6,   91.9, -999.0
04-03-2022, 00:40:46,    180,    0.0,    6.4,   0.00,   0.00, 1012.6,   91.9, -999.0
04-03-2022, 00:40:56,    180,    0.0,    6.5,   0.00,   0.00, 1012.6,   91.9, -999.0
04-03-2022, 00:41:05,    180,    0.0,    6.4,   0.00,   0.00, 1012.6,   91.9, -999.0
04-03-2022, 00:41:16,    180,    0.0,    6.4,   0.00,   0.00, 1012.5,   92.0, -999.0
04-03-2022, 00:41:26,    180,    0.0,    6.4,   0.00,   0.00, 1012.6,   92.1, -999.0
04-03-2022, 00:41:35,    180,    0.0,    6.4,   0.00,   0.00, 1012.6,   92.0, -999.0
04-03-2022, 00:41:46,    180,    0.0,    6.4,   0.00,   0.00, 1012.6,   91.9, -999.0
04-03-2022, 00:41:56,    180,    0.0,    6.3,   0.00,   0.00, 1012.6,   91.9, -999.0
04-03-2022, 00:42:05,    180,    0.0,    6.3,   0.00,   0.00, 1012.6,   92.0, -999.0
04-03-2022, 00:42:15,    180,    0.0,    6.4,   0.00,   0.00, 1012.6,   92.0, -999.0
04-03-2022, 00:42:25,    180,    0.2,    6.4,   0.00,   0.00, 1012.7,   92.3, -999.0
04-03-2022, 00:42:35,    180,    0.1,    6.4,   0.00,   0.00, 1012.6,   92.1, -999.0
04-03-2022, 00:42:45,    180,    0.0,    6.3,   0.00,   0.00, 1012.6,   92.0, -999.0
04-03-2022, 00:42:55,    180,    0.0,    6.3,   0.00,   0.00, 1012.6,   91.9, -999.0
04-03-2022, 00:43:07,    181,    0.0,    6.3,   0.00,   0.00, 1012.6,   91.9, -999.0
04-03-2022, 00:43:15,    181,    0.0,    6.3,   0.00,   0.00, 1012.6,   91.9, -999.0
04-03-2022, 00:43:25,    181,    0.0,    6.3,   0.00,   0.00, 1012.6,   91.9, -999.0
04-03-2022, 00:43:35,    181,    0.0,    6.3,   0.00,   0.00, 1012.6,   92.1, -999.0
04-03-2022, 00:43:45,    181,    0.0,    6.3,   0.00,   0.00, 1012.6,   91.9, -999.0
04-03-2022, 00:43:55,    181,    0.0,    6.4,   0.00,   0.00, 1012.6,   92.0, -999.0
04-03-2022, 00:44:05,    181,    0.0,    6.3,   0.00,   0.00, 1012.6,   92.0, -999.0
04-03-2022, 00:44:15,    180,    0.0,    6.3,   0.00,   0.00, 1012.6,   92.2, -999.0
04-03-2022, 00:44:25,    181,    0.0,    6.4,   0.00,   0.00, 1012.6,   92.1, -999.0
04-03-2022, 00:44:35,    180,    0.0,    6.4,   0.00,   0.00, 1012.6,   92.1, -999.0
04-03-2022, 00:44:44,    181,    0.0,    6.4,   0.00,   0.00, 1012.6,   92.2, -999.0
04-03-2022, 00:44:55,    180,    0.0,    6.4,   0.00,   0.00, 1012.6,   92.1, -999.0
04-03-2022, 00:45:05,    181,    0.0,    6.4,   0.00,   0.00, 1012.6,   92.2, -999.0
04-03-2022, 00:45:14,    181,    0.0,    6.4,   0.00,   0.00, 1012.6,   92.1, -999.0
04-03-2022, 00:45:24,    181,    0.0,    6.3,   0.00,   0.00, 1012.6,   92.0, -999.0
04-03-2022, 00:45:35,    181,    0.0,    6.3,   0.00,   0.00, 1012.6,   92.2, -999.0
04-03-2022, 00:45:44,    181,    0.0,    6.4,   0.00,   0.00, 1012.6,   92.1, -999.0
04-03-2022, 00:45:54,    181,    0.0,    6.4,   0.00,   0.00, 1012.6,   92.1, -999.0
04-03-2022, 00:46:04,    181,    0.2,    6.4,   0.00,   0.00, 1012.6,   92.2, -999.0
04-03-2022, 00:46:14,    180,    0.2,    6.4,   0.00,   0.00, 1012.7,   92.4, -999.0
04-03-2022, 00:46:24,    180,    0.0,    6.3,   0.00,   0.00, 1012.6,   92.0, -999.0
04-03-2022, 00:46:34,    180,    0.0,    6.4,   0.00,   0.00, 1012.6,   92.2, -999.0
04-03-2022, 00:46:44,    180,    0.0,    6.3,   0.00,   0.00, 1012.6,   92.2, -999.0
04-03-2022, 00:46:54,    180,    0.0,    6.3,   0.00,   0.00, 1012.6,   92.1, -999.0